Weather History for KHTL - March, 2013

Change the Weather History Date:

Thursday, March 14, 2013

  Actual Average Record
Temperature  
Mean Temperature 28 °F 28 °F  
Max Temperature 36 °F 39 °F 73 °F (1995)
Min Temperature 19 °F 18 °F -7 °F (1923)
Degree Days  
Heating Degree Days 37 37  
Month to date heating degree days 548 551  
Since 1 July heating degree days 5922 6423  
Cooling Degree Days 0 0  
Month to date cooling degree days 0 0  
Year to date cooling degree days 0 0  
Moisture  
Dew Point 16 °F    
Average Humidity 64    
Maximum Humidity 84    
Minimum Humidity 44    
Precipitation  
Precipitation T in 0.05 in 0.72 in (1973)
Month to date precipitation 0.86 0.76  
Year to date precipitation 6.12 3.48  
Snow  
Snow T in 0.30 in 5.50 in (1978)
Month to date snowfall 0.9 4.5  
Since 1 July snowfall 52.2 59.0  
Snow Depth 7.00 in    
Sea Level Pressure  
Sea Level Pressure 30.17 in    
Wind  
Wind Speed 8 mph (West)    
Max Wind Speed 15 mph    
Max Gust Speed 18 mph    
Visibility 10 miles    
Events Snow    
T = Trace of Precipitation, MM = Missing Value Source: NWS Daily Summary

Daily Weather History Graph

Daily Weather History Graph

Search for Another Location

Airport or City:

Trip Planner

Search our weather history database for the weather conditions in past years. The results will help you decide how hot, cold, wet, or windy it might be!

Date:

Astronomy

Mar. 14, 2013 Rise Set
Actual Time 7:52 AM EDT 7:43 PM EDT
Civil Twilight 7:23 AM EDT 8:12 PM EDT
Nautical Twilight 6:49 AM EDT 8:46 PM EDT
Astronomical Twilight 6:15 AM EDT 9:20 PM EDT
Moon 8:57 AM EDT (3/14) 11:08 PM EDT (3/14)
Length of Visible Light 12h 49m
Length of Day
11h 51m
Waxing Crescent, 9% of the Moon is Illuminated
Mar 14
Waxing Crescent
Mar 19
First Quarter
Mar 27
Full
Apr 3
Last Quarter
Apr 10
New

Hourly Weather History & Observations

Time (EDT) Temp. Windchill Dew Point Humidity Pressure Visibility Wind Dir Wind Speed Gust Speed Precip Events Conditions
12:53 AM 21.9 °F 11.7 °F 14.0 °F 72% 30.20 in 10.0 mi NW 9.2 mph - N/A   Scattered Clouds
1:04 AM 21.2 °F 11.7 °F 14.0 °F 74% 30.15 in 10.0 mi NW 8.1 mph 17.3 mph N/A   Mostly Cloudy
1:18 AM 21.2 °F 11.7 °F 15.8 °F 80% 30.15 in 10.0 mi NW 8.1 mph - N/A   Overcast
1:53 AM 23.0 °F 11.7 °F 15.1 °F 72% 30.20 in 10.0 mi NW 11.5 mph - N/A   Overcast
2:53 AM 24.1 °F 17.0 °F 16.0 °F 71% 30.21 in 10.0 mi WNW 5.8 mph - 0.00 in Snow Light Snow
3:53 AM 23.0 °F 15.8 °F 17.1 °F 78% 30.21 in 10.0 mi West 5.8 mph - 0.00 in   Overcast
4:53 AM 21.0 °F 12.4 °F 16.0 °F 81% 30.21 in 9.0 mi West 6.9 mph - N/A   Overcast
5:53 AM 19.9 °F 11.1 °F 15.1 °F 81% 30.21 in 10.0 mi West 6.9 mph - N/A   Overcast
6:18 AM 19.4 °F 9.5 °F 15.8 °F 86% 30.15 in 10.0 mi West 8.1 mph - N/A   Overcast
6:53 AM 19.9 °F 11.1 °F 15.1 °F 81% 30.22 in 10.0 mi West 6.9 mph - N/A   Overcast
7:53 AM 19.0 °F 11.1 °F 14.0 °F 81% 30.23 in 10.0 mi West 5.8 mph - N/A   Mostly Cloudy
8:09 AM 19.4 °F 11.5 °F 14.0 °F 80% 30.17 in 10.0 mi West 5.8 mph - N/A   Scattered Clouds
8:53 AM 21.0 °F 12.4 °F 14.0 °F 74% 30.24 in 10.0 mi West 6.9 mph - N/A   Clear
9:53 AM 24.1 °F 17.0 °F 16.0 °F 71% 30.25 in 10.0 mi West 5.8 mph - N/A   Clear
10:53 AM 27.0 °F 18.7 °F 16.0 °F 63% 30.24 in 10.0 mi NW 8.1 mph 17.3 mph N/A   Partly Cloudy
11:53 AM 30.0 °F 21.7 °F 15.1 °F 54% 30.24 in 10.0 mi West 9.2 mph - N/A   Clear
12:53 PM 30.9 °F 22.2 °F 16.0 °F 54% 30.21 in 10.0 mi West 10.4 mph - N/A   Clear
1:53 PM 33.1 °F 25.5 °F 16.0 °F 50% 30.20 in 10.0 mi West 9.2 mph - N/A   Clear
2:53 PM 34.0 °F 28.0 °F 16.0 °F 48% 30.17 in 10.0 mi WSW 6.9 mph - N/A   Clear
3:53 PM 36.0 °F 29.6 °F 17.1 °F 46% 30.16 in 10.0 mi West 8.1 mph - N/A   Clear
4:53 PM 36.0 °F 30.3 °F 17.1 °F 46% 30.14 in 10.0 mi WSW 6.9 mph - N/A   Clear
5:53 PM 36.0 °F 30.3 °F 16.0 °F 44% 30.13 in 10.0 mi West 6.9 mph - N/A   Clear
6:53 PM 36.0 °F 30.3 °F 18.0 °F 48% 30.11 in 10.0 mi West 6.9 mph - N/A   Clear
7:53 PM 34.0 °F 27.2 °F 19.0 °F 54% 30.10 in 10.0 mi WNW 8.1 mph - N/A   Clear
8:53 PM 30.9 °F 24.3 °F 18.0 °F 59% 30.08 in 10.0 mi West 6.9 mph - N/A   Clear
9:53 PM 30.0 °F 25.2 °F 16.0 °F 56% 30.04 in 10.0 mi SW 4.6 mph - N/A   Clear
10:53 PM 30.0 °F 21.7 °F 17.1 °F 59% 30.03 in 10.0 mi WSW 9.2 mph - N/A   Clear
11:53 PM 28.9 °F 19.8 °F 16.0 °F 58% 30.03 in 10.0 mi WSW 10.4 mph 17.3 mph N/A   Clear